Location: Peterborough
(44.3091°N, 78.3197°W)
Time: 19:07:54
(UTC-04:00)

A-11 Canister half - Pass Details

Date: 25 March 2023
Orbit: 1526 x 1682 km, 47.3° (Epoch: 06 June)

Event Time Altitude Azimuth Distance (km) Brightness Sun altitude
Rises 20:36:59 0° 277° (W) 4,895 13.6 -12.3°
Reaches altitude 10° 20:40:11 10° 280° (W) 3,890 12.6 -12.9°
Maximum altitude 20:50:09 76° 6° (N) 1,650 9.2 -14.6°
Enters shadow 20:57:45 19° 91° (E) 3,149 10.1 -15.9°
